[[{"header":{"parameterUnit":"m.s-1","parameterCategory":1,"la1":30.2991,"la2":30.254,"lo1":-89.0895,"lo2":-89.0444,"dy":0.0017,"dx":0.0017,"nx":28,"ny":28,"refTime":"2024-10-07T21:00:00:Z","depth":0,"parameterNumber":2,"parameterNumberName":"U-component_of_WINDS"},"data":[0,0,0,0,0,0,0,0,0,0,0,0,0,0,0,0,0,0,0,0,0,0,0,0,0,0,0,0,0,0,0,0,0,0,0,0,0,0,0,0,0,0,0,0,0,0,0,0,0,0,0,0,0,0,0,0,0,0,-1.1825,-1.1825,0,-1.178,-1.1779,-1.1779,-1.1717,-1.1716,-1.1715,-1.1714,-1.167,-1.167,-1.1669,0,0,0,0,0,0,0,0,0,0,0,0,0,-1.186,-1.186,-1.1825,-1.1825,-1.1824,-1.178,-1.1779,-1.1778,-1.1717,-1.1716,-1.1715,-1.1714,-1.167,-1.167,-1.1669,0,0,0,0,0,0,0,0,0,0,0,0,0,-1.1833,-1.1859,-1.1825,-1.1788,-1.1784,-1.178,-1.1779,-1.1778,-1.1718,-1.1716,-1.1715,-1.1713,-1.167,-1.167,-1.1669,-1.1698,0,0,-1.1668,-1.1668,0,0,0,0,0,0,0,0,-1.1834,-1.1832,-1.1794,-1.1791,-1.1786,-1.1752,-1.1775,-1.1752,-1.1718,-1.1743,-1.1714,-1.1712,-1.1699,-1.1696,-1.1691,-1.1696,-1.1694,-1.1668,-1.1668,-1.1668,-1.1668,0,0,0,0,0,0,0,-1.1836,-1.1833,-1.1807,-1.1794,-1.1789,-1.1774,-1.1768,-1.177,-1.173,-1.1741,-1.1736,-1.1732,-1.1696,-1.1691,-1.1689,-1.1694,-1.1668,-1.1668,-1.1668,-1.1668,-1.1719,-1.172,0,0,0,0,0,0,-1.1844,-1.1835,-1.1809,-1.1806,-1.1807,-1.1775,-1.1768,-1.1765,-1.173,-1.1723,-1.1733,-1.1729,-1.1693,-1.169,-1.1688,-1.1718,-1.1668,-1.1668,-1.1668,-1.1717,-1.1719,-1.1721,0,0,0,0,0,0,-1.1845,-1.1842,-1.181,-1.1819,-1.1814,-1.1776,-1.1772,-1.1765,-1.176,-1.1724,-1.1717,-1.1735,-1.1691,-1.1688,-1.1696,-1.1716,-1.1668,-1.1667,-1.1715,-1.1718,-1.172,-1.178,0,0,0,0,0,0,-1.1846,-1.1842,-1.1853,-1.182,-1.1814,-1.1819,-1.1774,-1.1765,-1.1759,-1.1753,-1.1724,-1.1718,-1.169,-1.1696,-1.1695,-1.1714,-1.1667,-1.1713,-1.1716,-1.1719,-1.1776,-1.1784,-1.1791,0,0,0,0,0,-1.1847,-1.1872,-1.1854,-1.1851,-1.1826,-1.182,-1.1817,-1.1784,-1.1761,-1.1771,-1.1748,-1.1719,-1.1714,-1.1698,-1.1696,-1.1715,-1.1712,-1.1716,-1.1719,-1.1772,-1.1782,-1.179,0,0,0,0,0,0,-1.191,-1.1868,-1.1846,-1.1862,-1.1845,-1.181,-1.1822,-1.1795,-1.1785,-1.178,-1.174,-1.1734,-1.1746,-1.1732,-1.1714,-1.174,-1.1708,-1.1712,-1.175,-1.1759,-1.1766,-1.1769,-1.1667,0,0,0,0,0,-1.1926,-1.1924,-1.1887,-1.1904,-1.1897,-1.1861,-1.1857,-1.1833,-1.1814,-1.1807,-1.1784,-1.1768,-1.1762,-1.176,-1.1753,-1.1773,-1.1766,-1.1786,-1.1793,-1.1799,-1.1803,-1.1811,-1.1819,-1.1732,-1.1732,-1.1732,0,0,-1.1958,-1.1934,-1.1936,-1.1916,-1.19,-1.19,-1.1855,-1.1857,-1.1856,-1.1808,-1.1813,-1.1796,-1.1774,-1.1788,-1.1793,-1.1776,-1.1825,-1.1804,-1.1809,-1.1809,-1.1815,-1.1824,-1.1831,-1.1735,-1.1734,-1.1734,0,0,-1.2016,-1.1998,-1.201,-1.1994,-1.1971,-1.1946,-1.1949,-1.1918,-1.1904,-1.1909,-1.1872,-1.187,-1.1862,-1.1848,-1.184,-1.1891,-1.1864,-1.189,-1.1929,-1.1938,-1.1945,-1.195,-1.1968,-1.1975,-1.1894,-1.1894,-1.1894,0,-1.2059,-1.2056,-1.2019,-1.2022,-1.2014,-1.1969,-1.198,-1.1968,-1.1943,-1.1939,-1.192,-1.1907,-1.189,-1.1899,-1.1912,-1.1907,-1.1909,-1.1893,-1.1946,-1.1952,-1.1957,-1.1973,-1.198,-1.1897,-1.1897,-1.1896,-1.1896,0,-1.211,-1.2108,-1.2121,-1.2097,-1.209,-1.2098,-1.2062,-1.2059,-1.2035,-1.2013,-1.2018,-1.1995,-1.1982,-1.1983,-1.196,-1.1988,-1.1978,-1.1954,-1.1921,-1.1969,-1.1983,-1.1989,-1.1902,-1.1901,-1.19,-1.1899,0,0,-1.2207,-1.2161,-1.2166,-1.2154,-1.2124,-1.2122,-1.2128,-1.2114,-1.2112,-1.2097,-1.21,-1.2093,-1.2069,-1.206,-1.2035,-1.2043,-1.2084,-1.2017,-1.2016,-1.2029,-1.2112,-1.2131,-1.2138,-1.2065,-1.2066,-1.2067,-1.2114,0,-1.2258,-1.2264,-1.223,-1.2244,-1.2242,-1.2198,-1.2203,-1.2185,-1.2164,-1.2159,-1.2136,-1.2132,-1.2101,-1.2095,-1.2101,-1.2078,-1.21,-1.2074,-1.2067,-1.2068,-1.2073,-1.2146,-1.2165,-1.221,-1.2119,-1.212,-1.2121,0,-1.232,-1.2306,-1.232,-1.2287,-1.2285,-1.2289,-1.2273,-1.2269,-1.2248,-1.2232,-1.2221,-1.2192,-1.2195,-1.2163,-1.2166,-1.2149,-1.2145,-1.2133,-1.2133,-1.2131,-1.2097,-1.2145,-1.2224,-1.2231,-1.213,-1.2129,-1.2128,0,-1.2387,-1.2373,-1.2378,-1.237,-1.2333,-1.2336,-1.2321,-1.2298,-1.2292,-1.2278,-1.2273,-1.226,-1.2253,-1.2244,-1.2212,-1.2193,-1.2219,-1.2185,-1.2205,-1.2206,-1.2212,-1.2212,-1.2291,-1.2211,-1.2211,-1.2211,-1.2211,0,-1.2448,-1.2458,-1.2408,-1.2412,-1.2421,-1.2382,-1.2393,-1.2374,-1.2353,-1.2352,-1.2315,-1.2315,-1.2273,-1.2268,-1.2244,-1.2249,-1.2246,-1.2234,-1.2227,-1.2236,-1.2238,-1.2232,-1.2228,-1.2212,-1.2212,-1.2212,-1.2211,0,-1.2525,-1.2492,-1.2495,-1.246,-1.2451,-1.2459,-1.2429,-1.243,-1.2407,-1.2406,-1.2404,-1.2367,-1.2359,-1.2327,-1.2312,-1.2295,-1.2309,-1.2296,-1.2316,-1.2311,-1.2333,-1.2331,-1.241,-1.2418,-1.2334,-1.2335,-1.2336,0,-1.2566,-1.2572,-1.2536,-1.2532,-1.2518,-1.2513,-1.2505,-1.2468,-1.2462,-1.2437,-1.2442,-1.2431,-1.242,-1.241,-1.2382,-1.237,-1.2356,-1.2385,-1.2355,-1.2364,-1.2356,-1.2355,-1.2355,-1.2392,-1.2393,-1.2394,-1.2394,0,-1.264,-1.2623,-1.2614,-1.2598,-1.259,-1.2577,-1.2561,-1.256,-1.2518,-1.2513,-1.2504,-1.2496,-1.248,-1.2469,-1.2452,-1.2437,-1.2409,-1.2404,-1.2408,-1.2418,-1.2428,-1.2422,-1.2332,-1.2403,-1.2402,-1.2401,-1.2401,-1.24,-1.2699,-1.2702,-1.2677,-1.2667,-1.2651,-1.2637,-1.2636,-1.2612,-1.2604,-1.2587,-1.2566,-1.2559,-1.2537,-1.2511,-1.2498,-1.2493,-1.2477,-1.2483,-1.2484,-1.2486,-1.249,-1.243,-1.249,-1.2489,-1.2489,-1.2489,-1.2489,0,-1.2771,-1.2752,-1.2744,-1.2722,-1.2714,-1.2688,-1.2668,-1.2664,-1.2658,-1.2639,-1.2629,-1.2619,-1.2608,-1.2579,-1.2566,-1.2567,-1.2553,-1.2565,-1.2564,-1.256,-1.2506,-1.2503,-1.2576,-1.2576,-1.2576,-1.2576,-1.2576,-1.2575,-1.2807,-1.281,-1.279,-1.2785,-1.2766,-1.2759,-1.275,-1.2737,-1.2721,-1.2711,-1.2701,-1.2682,-1.2659,-1.2643,-1.2632,-1.2624,-1.2621,-1.2636,-1.2623,-1.2573,-1.2564,-1.2556,-1.2554,-1.2636,-1.2636,-1.2678,-1.2678,-1.2679]},{"header":{"parameterUnit":"m.s-1","parameterCategory":1,"la1":30.2991,"la2":30.254,"lo1":-89.0895,"lo2":-89.0444,"dy":0.0017,"dx":0.0017,"nx":28,"ny":28,"refTime":"2024-10-07T21:00:00:Z","depth":0,"parameterNumber":3,"parameterNumberName":"V-component_of_WINDS"},"data":[0,0,0,0,0,0,0,0,0,0,0,0,0,0,0,0,0,0,0,0,0,0,0,0,0,0,0,0,0,0,0,0,0,0,0,0,0,0,0,0,0,0,0,0,0,0,0,0,0,0,0,0,0,0,0,0,0,0,-2.8026,-2.8026,0,-2.7967,-2.7967,-2.7966,-2.7934,-2.7934,-2.7934,-2.7934,-2.7871,-2.787,-2.7868,0,0,0,0,0,0,0,0,0,0,0,0,0,-2.8108,-2.8107,-2.8026,-2.8026,-2.8025,-2.7967,-2.7967,-2.7966,-2.7934,-2.7934,-2.7934,-2.7934,-2.7872,-2.787,-2.7868,0,0,0,0,0,0,0,0,0,0,0,0,0,-2.8063,-2.8106,-2.8026,-2.8002,-2.8,-2.7968,-2.7967,-2.7966,-2.7934,-2.7934,-2.7934,-2.7934,-2.7872,-2.787,-2.7868,-2.7854,0,0,-2.786,-2.7859,0,0,0,0,0,0,0,0,-2.8066,-2.806,-2.8007,-2.8004,-2.8001,-2.7958,-2.7972,-2.7928,-2.7934,-2.7959,-2.7934,-2.7934,-2.79,-2.7895,-2.7884,-2.7851,-2.7849,-2.786,-2.7858,-2.7857,-2.7857,0,0,0,0,0,0,0,-2.8069,-2.8062,-2.8003,-2.8006,-2.8002,-2.7993,-2.7987,-2.7964,-2.7931,-2.7957,-2.7954,-2.7948,-2.7898,-2.7887,-2.7883,-2.7848,-2.786,-2.7858,-2.7856,-2.7855,-2.7799,-2.7799,0,0,0,0,0,0,-2.8076,-2.8065,-2.8005,-2.8001,-2.8034,-2.7992,-2.7985,-2.7972,-2.7931,-2.7925,-2.7948,-2.7947,-2.7891,-2.7885,-2.788,-2.7861,-2.7857,-2.7855,-2.7854,-2.7799,-2.7799,-2.7799,0,0,0,0,0,0,-2.8078,-2.8071,-2.8007,-2.8032,-2.8024,-2.7991,-2.7976,-2.7971,-2.7959,-2.7924,-2.7918,-2.7943,-2.7891,-2.7884,-2.7861,-2.7858,-2.7854,-2.7852,-2.7799,-2.7799,-2.7799,-2.7823,0,0,0,0,0,0,-2.8081,-2.8072,-2.8068,-2.8033,-2.8022,-2.799,-2.7976,-2.797,-2.7955,-2.7953,-2.7917,-2.7911,-2.789,-2.7865,-2.7858,-2.7855,-2.785,-2.7799,-2.7799,-2.7799,-2.7822,-2.7824,-2.7825,0,0,0,0,0,-2.8084,-2.8076,-2.8068,-2.806,-2.8016,-2.799,-2.7984,-2.796,-2.7955,-2.795,-2.7927,-2.7912,-2.786,-2.7862,-2.7855,-2.7851,-2.7799,-2.7799,-2.7799,-2.7822,-2.7823,-2.7825,0,0,0,0,0,0,-2.8111,-2.8072,-2.8061,-2.8043,-2.802,-2.7984,-2.7977,-2.7963,-2.794,-2.7939,-2.791,-2.7902,-2.7882,-2.7864,-2.7868,-2.7835,-2.7828,-2.7826,-2.7847,-2.7849,-2.785,-2.7855,-2.7848,0,0,0,0,0,-2.8115,-2.8098,-2.8064,-2.8051,-2.804,-2.8011,-2.7998,-2.7982,-2.7957,-2.7947,-2.7922,-2.7898,-2.7875,-2.7861,-2.7839,-2.782,-2.7811,-2.7813,-2.7814,-2.7816,-2.7814,-2.7802,-2.7802,-2.7799,-2.7799,-2.7799,0,0,-2.8123,-2.8099,-2.809,-2.8056,-2.8036,-2.8018,-2.8003,-2.7984,-2.7969,-2.7943,-2.792,-2.7902,-2.7872,-2.785,-2.784,-2.7835,-2.7813,-2.7816,-2.7817,-2.7815,-2.7801,-2.7802,-2.7802,-2.7799,-2.7799,-2.7799,0,0,-2.8128,-2.8109,-2.8096,-2.8076,-2.8047,-2.8027,-2.8024,-2.799,-2.7977,-2.7954,-2.7933,-2.7915,-2.7878,-2.7857,-2.7842,-2.7838,-2.7823,-2.7831,-2.7838,-2.7826,-2.7826,-2.7826,-2.7824,-2.7823,-2.783,-2.783,-2.783,0,-2.8142,-2.8114,-2.809,-2.8072,-2.8057,-2.8033,-2.8018,-2.8,-2.7965,-2.7954,-2.795,-2.7902,-2.788,-2.7853,-2.7852,-2.7841,-2.7835,-2.7835,-2.7828,-2.7828,-2.7828,-2.7825,-2.7824,-2.7831,-2.7831,-2.7831,-2.7831,0,-2.8131,-2.8113,-2.8105,-2.8072,-2.8056,-2.804,-2.8012,-2.7998,-2.7983,-2.7963,-2.7939,-2.7912,-2.7883,-2.7876,-2.7861,-2.7846,-2.7844,-2.7834,-2.7826,-2.783,-2.7827,-2.7825,-2.7833,-2.7833,-2.7832,-2.7832,0,0,-2.8152,-2.8106,-2.8103,-2.8088,-2.8053,-2.8037,-2.8019,-2.7992,-2.798,-2.7956,-2.794,-2.7908,-2.7899,-2.7881,-2.7864,-2.7853,-2.785,-2.7844,-2.7843,-2.7846,-2.7831,-2.7838,-2.7837,-2.784,-2.784,-2.784,-2.7833,0,-2.8152,-2.812,-2.8097,-2.8073,-2.8054,-2.8031,-2.8015,-2.7991,-2.7972,-2.7953,-2.7931,-2.7909,-2.7899,-2.7888,-2.7877,-2.7853,-2.7847,-2.7853,-2.7823,-2.7822,-2.7831,-2.7836,-2.7843,-2.7838,-2.7832,-2.7831,-2.7831,0,-2.8147,-2.8124,-2.8099,-2.8065,-2.8056,-2.8043,-2.8015,-2.7997,-2.7969,-2.7956,-2.7936,-2.7918,-2.7897,-2.7891,-2.786,-2.7865,-2.7851,-2.7838,-2.7837,-2.7833,-2.7827,-2.7831,-2.7836,-2.7835,-2.7829,-2.7829,-2.783,0,-2.8164,-2.8127,-2.8106,-2.8093,-2.8054,-2.8045,-2.8028,-2.8,-2.7985,-2.796,-2.7949,-2.7923,-2.7908,-2.7887,-2.7861,-2.7859,-2.7832,-2.7825,-2.782,-2.782,-2.7815,-2.7815,-2.7817,-2.7807,-2.7807,-2.7807,-2.7807,0,-2.8165,-2.815,-2.8113,-2.8101,-2.8082,-2.8056,-2.8038,-2.8019,-2.7994,-2.7977,-2.7955,-2.7938,-2.7906,-2.7885,-2.7865,-2.7842,-2.7835,-2.7823,-2.7818,-2.7825,-2.7826,-2.7815,-2.7814,-2.7807,-2.7807,-2.7807,-2.7807,0,-2.818,-2.8155,-2.8131,-2.8096,-2.8087,-2.8075,-2.8044,-2.803,-2.801,-2.7988,-2.7981,-2.7948,-2.7923,-2.7895,-2.786,-2.7846,-2.7824,-2.7817,-2.7834,-2.783,-2.7827,-2.7827,-2.7821,-2.7818,-2.7811,-2.7811,-2.7811,0,-2.8182,-2.817,-2.8134,-2.8121,-2.8105,-2.8084,-2.8068,-2.8041,-2.8025,-2.7992,-2.7982,-2.7955,-2.7931,-2.7891,-2.7864,-2.7836,-2.7828,-2.7827,-2.7824,-2.7831,-2.7827,-2.7828,-2.7826,-2.7829,-2.7829,-2.7829,-2.7829,0,-2.8188,-2.8177,-2.8155,-2.8129,-2.8111,-2.8089,-2.8066,-2.8056,-2.8024,-2.8007,-2.7981,-2.7963,-2.7927,-2.79,-2.7869,-2.785,-2.7834,-2.7831,-2.7828,-2.7835,-2.7845,-2.7838,-2.7836,-2.7831,-2.7831,-2.7831,-2.783,-2.783,-2.8197,-2.8184,-2.8157,-2.8133,-2.8113,-2.8092,-2.8077,-2.8055,-2.8033,-2.8002,-2.7987,-2.7961,-2.7932,-2.7889,-2.787,-2.7848,-2.7843,-2.784,-2.7839,-2.7838,-2.7839,-2.7849,-2.7843,-2.7843,-2.7842,-2.7842,-2.7842,0,-2.8201,-2.8182,-2.816,-2.8129,-2.811,-2.8098,-2.8071,-2.8056,-2.8033,-2.8008,-2.7986,-2.7955,-2.7928,-2.7899,-2.787,-2.7858,-2.785,-2.7851,-2.7851,-2.7847,-2.7846,-2.7851,-2.7858,-2.7858,-2.7858,-2.7858,-2.7858,-2.7858,-2.8201,-2.8179,-2.8164,-2.8131,-2.8112,-2.8087,-2.8073,-2.8052,-2.8032,-2.7999,-2.7977,-2.7958,-2.7931,-2.79,-2.7874,-2.7866,-2.7856,-2.786,-2.7849,-2.7849,-2.7847,-2.7846,-2.7851,-2.7858,-2.7858,-2.7852,-2.7852,-2.7852]}]]